1486029600.84,37087,7.94,73124.0,-1.93,-36.97,-36.79,0,*50
1486029602.08,37088,7.94,73116.8,-1.95,-36.85,-36.73,0,*50
1486029603.35,37089,7.94,73114.0,-1.95,-35.41,-35.41,0,*58
1486029604.56,37090,7.94,73110.5,-1.93,-35.71,-35.71,0,*56
1486029605.81,37091,7.94,73110.8,-1.91,-35.47,-35.35,0,*50
1486029607.09,37092,7.94,73110.8,-1.91,-35.53,-35.53,0,*56
1486029608.37,37093,7.94,73108.8,-1.91,-36.13,-36.25,0,*52
1486029609.6,37094,7.94,73110.8,-1.93,-36.43,-36.25,0,*52
1486029610.84,37095,7.94,73118.0,-1.91,-35.29,-35.17,0,*5C
1486029612.11,37096,7.94,73114.0,-1.91,-35.53,-35.53,0,*52
1486029613.35,37097,7.94,73118.0,-1.91,-36.07,-35.89,0,*56
1486029614.56,37098,7.94,73110.5,-1.93,-36.07,-36.07,0,*5E
1486029615.8,37099,7.94,73118.8,-1.91,-35.89,-35.89,0,*5D
1486029617.09,37100,7.94,73118.0,-1.91,-35.95,-35.83,0,*5B
1486029618.37,37101,7.94,73112.0,-1.91,-36.49,-36.49,0,*5D
1486029619.6,37102,7.94,73116.5,-1.91,-36.43,-36.43,0,*5E
1486029620.88,37103,7.94,73122.8,-1.91,-36.79,-36.79,0,*5F
1486029622.12,37104,7.94,73124.3,-1.91,-36.31,-36.31,0,*58
1486029623.41,37105,7.94,73124.3,-1.91,-35.95,-35.83,0,*5E
1486029624.69,37106,7.94,73120.8,-1.91,-36.13,-36.25,0,*5F
1486029625.92,37107,7.94,73120.5,-1.89,-37.03,-37.21,0,*52
1486029627.15,37108,7.94,73126.3,-1.89,-36.61,-36.73,0,*5E
1486029628.44,37109,7.94,73134.3,-1.91,-36.25,-36.25,0,*55
1486029629.68,37110,7.94,73132.8,-1.91,-36.43,-36.43,0,*5D
1486029630.95,37111,7.94,73138.3,-1.91,-36.13,-36.13,0,*5C
1486029632.24,37112,7.94,73132.8,-1.91,-36.25,-36.49,0,*55
1486029633.47,37113,7.94,73126.8,-1.91,-36.97,-36.97,0,*5E
1486029634.68,37114,7.94,73128.0,-1.93,-36.85,-36.85,0,*5B
1486029635.91,37115,7.94,73124.3,-1.93,-37.09,-37.15,0,*57
1486029637.14,37116,7.94,73120.0,-1.93,-37.21,-37.27,0,*5F
1486029638.41,37117,7.94,73116.0,-1.93,-37.21,-37.39,0,*51
1486029639.66,37118,7.94,73114.5,-1.95,-37.15,-37.09,0,*5C
1486029640.86,37119,7.94,73116.0,-1.97,-37.15,-37.45,0,*57
1486029642.1,37120,7.94,73128.8,-1.95,-37.15,-37.15,0,*5A
1486029643.32,37121,7.94,73132.8,-1.95,-37.33,-37.45,0,*5A
1486029644.58,37122,7.94,73128.0,-1.97,-36.91,-37.09,0,*5A
1486029645.84,37123,7.94,73130.3,-1.99,-37.09,-37.15,0,*58
1486029647.13,37124,7.94,73128.5,-1.99,-37.21,-37.39,0,*5B
1486029648.38,37125,7.94,73138.0,-1.99,-36.43,-36.61,0,*53
1486029649.64,37126,7.94,73138.5,-2.01,-36.79,-36.91,0,*54
1486029650.89,37127,7.94,73136.8,-2.01,-35.65,-35.95,0,*5C
1486029652.14,37128,7.94,73140.0,-1.97,-36.37,-36.49,0,*59
1486029653.4,37129,7.94,73134.0,-1.99,-35.95,-36.07,0,*57
1486029654.66,37130,7.94,73134.0,-1.99,-35.83,-36.07,0,*58
1486029655.88,37131,7.94,73134.0,-1.97,-35.53,-35.71,0,*58
1486029657.07,37132,7.94,73128.5,-1.97,-35.59,-35.71,0,*51
1486029658.29,37133,7.94,73122.5,-1.97,-35.53,-35.71,0,*5A
1486029659.55,37134,7.94,73122.0,-1.95,-34.41,-34.65,0,*59
1486029660.8,37135,7.94,73124.0,-1.95,-34.25,-34.31,0,*5B
1486029662.07,37136,7.94,73124.8,-1.91,-34.59,-34.65,0,*56
1486029663.3,37137,7.94,73122.3,-1.89,-35.23,-35.59,0,*5C
1486029664.56,37138,7.94,73120.3,-1.89,-34.95,-35.23,0,*52
1486029665.79,37139,7.94,73118.8,-1.89,-35.07,-35.47,0,*5B
1486029667.01,37140,7.94,73122.5,-1.89,-35.77,-36.01,0,*53
1486029668.27,37141,7.94,73130.8,-1.87,-35.71,-35.83,0,*53
1486029669.52,37142,7.94,73124.5,-1.87,-35.77,-36.13,0,*5C
1486029670.76,37143,7.94,73126.3,-1.89,-35.89,-36.25,0,*57
1486029671.97,37144,7.94,73128.3,-1.89,-36.19,-36.55,0,*5D
1486029673.18,37145,7.94,73116.8,-1.89,-36.19,-36.55,0,*5C
1486029674.41,37146,7.94,73116.3,-1.89,-35.89,-36.25,0,*52
1486029675.64,37147,7.94,73118.8,-1.87,-36.31,-36.73,0,*5E
1486029676.87,37148,7.94,73120.8,-1.89,-36.43,-36.79,0,*50
1486029678.09,37149,7.94,73122.5,-1.89,-35.77,-36.01,0,*5A
1486029679.32,37150,7.94,73114.5,-1.89,-36.91,-37.33,0,*59
1486029680.55,37151,7.94,73112.3,-1.89,-36.43,-36.91,0,*5E
1486029681.8,37152,7.94,73120.0,-1.89,-36.79,-37.21,0,*5E
1486029683.03,37153,7.94,73124.3,-1.89,-36.55,-36.91,0,*5B
1486029684.26,37154,7.94,73120.5,-1.93,-35.83,-36.07,0,*50
1486029685.52,37155,7.94,73112.5,-1.91,-36.61,-36.97,0,*55
1486029686.73,37156,7.94,73114.0,-1.93,-36.31,-36.67,0,*5E
1486029687.99,37157,7.94,73130.0,-1.91,-35.83,-36.31,0,*54
1486029689.27,37158,7.94,73122.8,-1.91,-35.65,-35.95,0,*5E
1486029690.53,37159,7.94,73116.0,-1.91,-36.49,-36.97,0,*53
1486029691.76,37160,7.94,73118.5,-1.93,-36.67,-37.09,0,*51
1486029693.02,37161,7.94,73122.8,-1.91,-36.25,-36.67,0,*5D
1486029694.27,37162,7.94,73118.5,-1.93,-35.65,-36.13,0,*58
1486029695.5,37163,7.94,73120.5,-1.93,-36.61,-37.03,0,*5E
1486029696.74,37164,7.94,73122.0,-1.93,-35.95,-36.43,0,*54
1486029697.95,37165,7.94,73120.0,-1.93,-36.07,-36.67,0,*5B
1486029699.18,37166,7.94,73116.3,-1.93,-35.71,-36.13,0,*59
1486029700.46,37167,7.94,73114.8,-1.91,-35.83,-36.13,0,*57
1486029701.69,37168,7.94,73118.3,-1.93,-36.07,-36.49,0,*5A
1486029702.97,37169,7.94,73122.5,-1.91,-35.65,-35.95,0,*5C
1486029704.23,37170,7.94,73126.8,-1.91,-35.71,-36.13,0,*5C
1486029705.49,37171,7.94,73124.5,-1.91,-35.89,-36.25,0,*5F
1486029706.7,37172,7.94,73114.0,-1.89,-35.29,-35.77,0,*5B
1486029707.91,37173,7.94,73112.5,-1.89,-35.13,-35.59,0,*5F
1486029709.11,37174,8.0,73122.5,-1.89,-35.17,-35.59,0,*5C
1486029710.31,37175,7.94,73118.5,-1.89,-36.55,-36.97,0,*59
1486029711.52,37176,7.94,73122.0,-1.89,-36.97,-37.33,0,*5B
1486029712.76,37177,7.94,73120.0,-1.89,-36.97,-37.51,0,*5E
1486029713.99,37178,7.94,73122.3,-1.89,-36.91,-37.33,0,*53
1486029715.27,37179,7.94,73124.0,-1.91,-35.95,-36.49,0,*50
1486029716.5,37180,7.94,73130.0,-1.91,-35.71,-36.07,0,*56
1486029717.71,37181,7.94,73130.0,-1.89,-34.89,-35.29,0,*57
1486029718.97,37182,7.94,73130.8,-1.89,-34.53,-34.95,0,*55
1486029720.23,37183,7.94,73128.0,-1.87,-34.25,-34.65,0,*54
1486029721.46,37184,7.94,73128.3,-1.85,-34.89,-35.41,0,*50
1486029722.69,37185,7.94,73122.3,-1.85,-35.35,-35.77,0,*52
1486029723.93,37186,7.94,73128.5,-1.85,-35.01,-35.41,0,*53
1486029725.18,37187,7.94,73124.8,-1.83,-35.13,-35.65,0,*51
1486029726.45,37188,7.94,73128.3,-1.83,-35.89,-36.25,0,*5A
1486029727.68,37189,7.94,73130.3,-1.85,-35.23,-35.77,0,*59
1486029728.92,37190,7.94,73136.5,-1.83,-35.29,-35.71,0,*5B
1486029730.18,37191,7.94,73132.5,-1.83,-35.65,-35.89,0,*55
1486029731.45,37192,7.94,73136.3,-1.83,-34.83,-35.29,0,*55
1486029732.74,37193,7.94,73142.8,-1.83,-34.83,-35.35,0,*59
1486029733.98,37194,7.94,73142.8,-1.81,-34.95,-35.29,0,*56
1486029735.25,37195,7.94,73142.3,-1.77,-34.13,-34.65,0,*59
1486029736.48,37196,7.94,73142.0,-1.81,-34.01,-34.47,0,*50
1486029737.74,37197,7.94,73140.5,-1.77,-33.55,-33.89,0,*5B
1486029738.96,37198,7.94,73140.5,-1.75,-34.07,-34.47,0,*53
1486029740.18,37199,7.94,73136.0,-1.75,-36.01,-36.55,0,*57
1486029741.39,37200,7.94,73136.8,-1.75,-36.01,-36.67,0,*55
1486029742.6,37201,7.94,73132.5,-1.75,-36.19,-36.73,0,*58
1486029743.83,37202,7.94,73138.3,-1.75,-35.53,-36.19,0,*5A
1486029745.07,37203,7.94,73134.5,-1.75,-35.77,-36.37,0,*51
1486029746.33,37204,7.94,73118.8,-1.75,-35.35,-35.83,0,*5C
1486029747.56,37205,7.94,73124.0,-1.73,-35.17,-35.77,0,*50
1486029748.8,37206,7.94,73126.3,-1.75,-35.95,-36.73,0,*58
1486029750.07,37207,7.94,73130.5,-1.77,-35.77,-36.37,0,*57
1486029751.28,37208,7.94,73126.0,-1.75,-35.59,-36.01,0,*53
1486029752.49,37209,7.94,73134.3,-1.75,-35.59,-36.31,0,*51
1486029753.74,37210,7.94,73130.0,-1.75,-35.53,-36.13,0,*53
1486029754.98,37211,7.94,73120.8,-1.75,-35.77,-36.49,0,*5B
1486029756.21,37212,7.94,73126.0,-1.75,-35.59,-36.37,0,*5D
1486029757.47,37213,7.94,73130.8,-1.77,-34.35,-34.89,0,*52
1486029758.75,37214,7.94,73130.3,-1.73,-33.89,-34.65,0,*53
1486029759.98,37215,7.94,73134.8,-1.73,-34.41,-35.17,0,*55
1486029761.22,37216,7.94,73134.8,-1.73,-34.77,-35.47,0,*56
1486029762.48,37217,7.94,73122.0,-1.73,-35.13,-35.95,0,*5B
1486029763.71,37218,7.94,73120.0,-1.71,-35.53,-36.43,0,*5A
1486029764.94,37219,7.94,73124.8,-1.71,-35.59,-36.49,0,*5B
1486029766.18,37220,7.94,73130.0,-1.69,-35.71,-36.55,0,*5F
1486029767.46,37221,7.94,73130.3,-1.73,-36.13,-37.09,0,*5A
1486029768.7,37222,7.94,73130.5,-1.73,-35.89,-36.73,0,*55
1486029769.95,37223,7.94,73132.3,-1.73,-36.49,-37.57,0,*5C
1486029771.17,37224,7.94,73132.8,-1.75,-36.31,-37.15,0,*54
1486029772.42,37225,7.94,73130.5,-1.77,-35.77,-36.55,0,*53
1486029773.64,37226,7.94,73130.3,-1.75,-35.01,-35.77,0,*50
1486029774.87,37227,7.94,73132.5,-1.73,-34.41,-35.13,0,*50
1486029776.08,37228,7.94,73136.0,-1.75,-34.13,-34.89,0,*5C
1486029777.32,37229,7.94,73146.8,-1.73,-35.13,-35.89,0,*5B
1486029778.58,37230,7.94,73146.3,-1.69,-35.65,-36.43,0,*5C
1486029779.83,37231,7.94,73140.8,-1.73,-35.47,-36.49,0,*5C
1486029781.08,37232,7.94,73138.5,-1.73,-35.59,-36.49,0,*50
1486029782.31,37233,7.94,73128.3,-1.73,-35.59,-36.31,0,*5E
1486029783.57,37234,7.94,73120.3,-1.73,-35.29,-36.13,0,*5E
1486029784.82,37235,7.94,73124.8,-1.73,-35.53,-36.43,0,*57
1486029786.07,37236,8.0,73126.0,-1.73,-35.89,-36.91,0,*5C
1486029787.33,37237,7.94,73118.0,-1.73,-35.35,-36.31,0,*50
1486029788.59,37238,7.94,73114.0,-1.73,-34.59,-35.35,0,*53
1486029789.87,37239,7.94,73110.0,-1.73,-35.35,-36.13,0,*5E
1486029791.08,37240,7.94,73112.0,-1.71,-35.89,-36.73,0,*53
1486029792.35,37241,7.94,73108.0,-1.71,-36.25,-37.21,0,*51
1486029793.59,37242,7.94,73106.5,-1.71,-36.07,-37.09,0,*58
1486029794.87,37243,7.94,73114.8,-1.73,-36.25,-37.09,0,*5B
1486029796.13,37244,8.0,73120.3,-1.73,-35.77,-36.49,0,*5D
1486029797.36,37245,7.94,73112.0,-1.73,-35.89,-36.73,0,*54
1486029798.62,37246,7.94,73108.8,-1.73,-35.77,-36.61,0,*55
1486029799.88,37247,7.94,73110.0,-1.73,-36.07,-36.91,0,*5F
1486029801.11,37248,7.94,73096.0,-1.75,-36.13,-37.27,0,*5F
1486029802.36,37249,7.94,73100.5,-1.75,-36.13,-36.79,0,*54
1486029803.58,37250,7.94,73108.3,-1.75,-35.77,-36.55,0,*53
1486029804.84,37251,7.94,73106.8,-1.75,-35.65,-36.49,0,*5C
1486029806.05,37252,7.94,73106.3,-1.75,-35.77,-36.67,0,*50
1486029807.27,37253,8.0,73110.3,-1.75,-35.77,-36.67,0,*51
1486029808.52,37254,7.94,73108.8,-1.75,-36.67,-37.63,0,*51
1486029809.75,37255,7.94,73106.8,-1.73,-35.89,-36.73,0,*55
1486029810.99,37256,7.94,73112.8,-1.75,-36.31,-37.51,0,*51
1486029812.22,37257,7.94,73124.3,-1.75,-36.13,-36.97,0,*5B
1486029813.46,37258,7.94,73126.0,-1.75,-36.01,-37.09,0,*51
1486029814.73,37259,7.94,73122.3,-1.77,-36.67,-37.63,0,*5E
1486029815.98,37260,7.94,73126.3,-1.77,-36.37,-37.45,0,*55
1486029817.21,37261,7.94,73130.5,-1.81,-35.71,-36.61,0,*5B
1486029818.48,37262,7.94,73134.8,-1.77,-35.65,-36.55,0,*53
1486029819.74,37263,7.94,73128.8,-1.77,-35.95,-36.97,0,*53
1486029821.03,37264,7.94,73136.0,-1.77,-35.95,-36.79,0,*54
1486029822.29,37265,7.94,73128.5,-1.77,-35.83,-36.85,0,*51
1486029823.55,37266,7.94,73128.3,-1.77,-35.23,-36.19,0,*5D
1486029824.8,37267,7.94,73124.8,-1.81,-35.95,-36.91,0,*58
1486029826.06,37268,7.94,73124.0,-1.77,-35.59,-36.49,0,*5B
1486029827.35,37269,7.94,73118.5,-1.77,-35.95,-36.79,0,*59
1486029828.56,37270,8.0,73122.5,-1.75,-36.01,-36.73,0,*57
1486029829.82,37271,7.94,73124.0,-1.77,-35.95,-36.97,0,*50
1486029831.11,37272,7.94,73118.0,-1.77,-36.13,-37.09,0,*58
1486029832.37,37273,8.0,73118.0,-1.77,-36.01,-37.09,0,*5A
1486029833.65,37274,8.0,73118.5,-1.77,-35.65,-36.49,0,*59
1486029834.91,37275,7.94,73120.0,-1.77,-35.17,-36.13,0,*52
1486029836.18,37276,7.94,73124.3,-1.77,-35.01,-35.83,0,*5C
1486029837.41,37277,7.94,73118.0,-1.73,-36.31,-37.27,0,*55
1486029838.65,37278,7.94,73116.8,-1.75,-35.83,-36.73,0,*56
1486029839.88,37279,7.94,73120.5,-1.75,-36.13,-36.73,0,*5D
1486029841.12,37280,7.94,73130.3,-1.75,-35.53,-36.55,0,*58
1486029842.33,37281,7.94,73130.5,-1.75,-35.59,-36.55,0,*53
1486029843.57,37282,8.0,73128.8,-1.75,-35.65,-36.67,0,*5E
1486029844.8,37283,7.94,73132.0,-1.75,-36.67,-37.69,0,*51
1486029846.03,37284,8.0,73128.5,-1.75,-36.67,-37.69,0,*56
1486029847.27,37285,7.94,73114.3,-1.75,-36.67,-37.69,0,*57
1486029848.5,37286,8.0,73118.8,-1.75,-36.67,-37.69,0,*54
1486029849.74,37287,8.0,73124.5,-1.77,-36.97,-38.05,0,*5D
1486029851.03,37288,8.0,73128.0,-1.77,-36.91,-37.81,0,*57
1486029852.28,37289,8.0,73122.8,-1.81,-37.09,-38.11,0,*59
1486029853.55,37290,7.94,73100.3,-1.83,-37.27,-38.23,0,*5E
1486029854.78,37291,7.94,73094.8,-1.83,-37.57,-38.43,0,*5E
1486029856.04,37292,8.0,73100.5,-1.85,-37.51,-38.67,0,*5B
1486029857.29,37293,7.94,73100.0,-1.85,-37.69,-38.67,0,*51
1486029858.55,37294,7.94,73102.0,-1.89,-37.21,-38.11,0,*57
1486029859.78,37295,8.0,73098.0,-1.89,-37.15,-38.23,0,*50
1486029861.02,37296,8.0,73108.5,-1.89,-36.43,-37.39,0,*55
1486029862.25,37297,7.94,73098.8,-1.89,-36.25,-37.03,0,*5D
1486029863.49,37298,8.0,73112.3,-1.87,-36.13,-36.85,0,*56
1486029864.7,37299,8.0,73114.0,-1.89,-36.19,-36.97,0,*50
1486029865.95,37300,7.94,73116.0,-1.87,-35.71,-36.37,0,*58
1486029867.18,37301,8.0,73114.5,-1.85,-36.67,-37.51,0,*5E
1486029868.44,37302,7.94,73114.8,-1.87,-37.15,-38.23,0,*51
1486029869.67,37303,7.94,73098.3,-1.89,-37.51,-38.55,0,*5F
1486029870.9,37304,7.94,73106.5,-1.89,-37.33,-38.29,0,*57
1486029872.19,37305,8.0,73114.8,-1.91,-37.81,-38.79,0,*53
1486029873.48,37306,8.0,73112.0,-1.91,-37.09,-37.99,0,*51
1486029874.71,37307,7.94,73120.0,-1.91,-36.67,-37.57,0,*5B
1486029875.98,37308,7.94,73118.3,-1.91,-37.21,-38.17,0,*5C
1486029877.26,37309,8.0,73116.0,-1.91,-37.39,-38.29,0,*59
1486029878.52,37310,7.94,73112.5,-1.93,-37.99,-38.91,0,*5A
1486029879.75,37311,7.94,73094.8,-1.93,-38.11,-39.09,0,*54
1486029880.97,37312,7.94,73090.5,-1.93,-37.93,-38.97,0,*54
1486029882.18,37313,8.0,73112.5,-1.97,-38.05,-38.85,0,*52
1486029883.4,37314,8.0,73114.3,-1.97,-37.99,-38.85,0,*5F
1486029884.69,37315,8.0,73104.5,-1.99,-37.51,-38.23,0,*58
1486029885.98,37316,8.0,73106.5,-1.99,-37.39,-38.29,0,*5F
1486029887.26,37317,7.94,73102.8,-1.99,-37.39,-38.11,0,*55
1486029888.51,37318,7.94,73104.8,-2.01,-36.61,-37.21,0,*58
1486029889.72,37319,7.94,73106.8,-2.01,-36.07,-36.97,0,*55
1486029890.97,37320,8.0,73114.0,-1.99,-36.07,-36.91,0,*5B
1486029892.24,37321,8.0,73114.0,-1.99,-36.91,-37.87,0,*53
1486029893.47,37322,8.0,73122.8,-1.99,-36.97,-37.75,0,*5B
1486029894.73,37323,8.0,73112.5,-1.99,-36.91,-37.57,0,*5C
1486029895.97,37324,8.0,73106.5,-2.01,-36.73,-37.51,0,*53
1486029897.22,37325,7.94,73102.8,-2.01,-37.09,-37.93,0,*50
1486029898.45,37326,8.0,73106.0,-1.99,-37.15,-38.05,0,*5C
1486029899.71,37327,8.0,73108.3,-1.99,-37.09,-37.87,0,*55
1486029900.95,37328,7.94,73102.3,-1.99,-36.73,-37.57,0,*5B
1486029902.2,37329,8.0,73102.3,-2.01,-37.09,-37.93,0,*5C
1486029903.43,37330,7.94,73110.5,-2.01,-37.09,-38.05,0,*54
1486029904.64,37331,8.0,73114.5,-2.01,-36.43,-37.15,0,*54
1486029905.87,37332,8.0,73112.8,-2.01,-37.21,-38.05,0,*5C
1486029907.13,37333,8.0,73108.3,-2.01,-37.09,-37.93,0,*57
1486029908.38,37334,8.0,73124.5,-2.01,-37.21,-38.11,0,*5F
1486029909.61,37335,8.0,73116.5,-2.01,-37.15,-38.11,0,*59
1486029910.84,37336,8.0,73108.8,-2.05,-36.79,-37.57,0,*58
1486029912.13,37337,7.94,73114.3,-2.07,-37.21,-37.93,0,*5F
1486029913.36,37338,8.0,73116.5,-2.05,-37.27,-38.11,0,*51
1486029914.57,37339,8.0,73118.0,-2.05,-37.45,-38.35,0,*52
1486029915.87,37340,7.94,73116.3,-2.07,-37.81,-38.49,0,*5D
1486029917.13,37341,7.94,73114.8,-2.07,-37.75,-38.49,0,*57
1486029918.38,37342,7.94,73122.5,-2.09,-37.09,-37.69,0,*5C
1486029919.61,37343,8.0,73114.3,-2.09,-37.51,-38.17,0,*56
1486029920.87,37344,7.94,73114.0,-2.11,-37.45,-38.23,0,*5A
1486029922.14,37345,8.0,73114.8,-2.11,-37.21,-37.87,0,*58
1486029923.42,37346,8.0,73118.0,-2.11,-37.21,-37.69,0,*5B
1486029924.71,37347,8.0,73126.3,-2.11,-37.09,-37.99,0,*5F
1486029925.94,37348,8.0,73128.0,-2.13,-37.27,-38.05,0,*54
1486029927.2,37349,8.0,73118.0,-2.09,-37.21,-37.99,0,*52
1486029928.46,37350,7.94,73100.8,-2.11,-37.69,-38.43,0,*57
1486029929.72,37351,8.0,73104.5,-2.13,-37.69,-38.61,0,*54
1486029930.95,37352,8.0,73108.8,-2.15,-37.81,-38.73,0,*54
1486029932.19,37353,7.94,73126.0,-2.15,-37.63,-38.35,0,*5B
1486029933.46,37354,8.0,73124.5,-2.15,-37.21,-37.99,0,*53
1486029934.72,37355,8.0,73120.8,-2.15,-37.63,-38.49,0,*56
1486029935.95,37356,8.0,73124.5,-2.19,-37.81,-38.73,0,*5C
1486029937.16,37357,8.0,73120.5,-2.19,-37.87,-38.73,0,*5B
1486029938.41,37358,8.0,73102.0,-2.17,-38.11,-39.09,0,*56
1486029939.61,37359,8.0,73076.8,-2.19,-37.87,-38.73,0,*55
1486029940.9,37360,7.94,73066.3,-2.21,-37.99,-38.79,0,*51
1486029942.13,37361,8.0,73076.8,-2.23,-38.43,-39.23,0,*54
1486029943.39,37362,7.94,73090.8,-2.23,-38.23,-38.91,0,*59
1486029944.64,37363,7.94,73098.5,-2.23,-38.11,-38.91,0,*59
1486029945.85,37364,8.0,73112.0,-2.27,-37.75,-38.61,0,*58
1486029947.06,37365,8.0,73114.8,-2.27,-37.15,-37.57,0,*55
1486029948.33,37366,8.0,73114.8,-2.29,-37.33,-37.99,0,*5E
1486029949.56,37367,8.0,73126.5,-2.27,-36.79,-37.33,0,*5E
1486029950.82,37368,8.0,73128.5,-2.27,-36.79,-37.51,0,*55
1486029952.08,37369,8.0,73134.0,-2.29,-36.85,-37.39,0,*57
1486029953.32,37370,8.0,73136.5,-2.27,-36.31,-36.91,0,*5D
1486029954.55,37371,8.0,73128.0,-2.27,-36.43,-37.09,0,*59
1486029955.79,37372,8.0,73134.3,-2.27,-36.55,-37.09,0,*5D
1486029957.05,37373,8.0,73130.0,-2.23,-36.37,-36.91,0,*5C
1486029958.32,37374,8.0,73120.3,-2.23,-36.91,-37.51,0,*5A
1486029959.58,37375,7.94,73128.0,-2.27,-36.91,-37.51,0,*5F
1486029960.82,37376,7.94,73138.5,-2.27,-36.91,-37.57,0,*5A
1486029962.05,37377,8.0,73134.5,-2.27,-36.61,-37.27,0,*53
1486029963.29,37378,7.94,73130.5,-2.27,-37.09,-37.87,0,*59
1486029964.5,37379,8.0,73136.8,-2.23,-37.15,-37.75,0,*5C
1486029965.76,37380,7.94,73136.3,-2.21,-37.45,-38.23,0,*51
1486029967.03,37381,8.0,73134.5,-2.23,-37.51,-38.29,0,*5D
1486029968.23,37382,8.0,73136.0,-2.27,-37.45,-38.05,0,*51
1486029969.47,37383,8.0,73132.8,-2.27,-37.51,-38.43,0,*57
1486029970.68,37384,8.0,73130.8,-2.27,-37.75,-38.55,0,*51
1486029971.92,37385,8.0,73128.0,-2.29,-37.57,-38.35,0,*58
1486029973.16,37386,7.94,73132.8,-2.31,-37.75,-38.49,0,*59
1486029974.43,37387,8.0,73130.5,-2.31,-37.81,-38.49,0,*53
1486029975.69,37388,8.0,73132.3,-2.33,-37.57,-38.23,0,*59
1486029976.96,37389,8.0,73126.0,-2.33,-37.09,-37.57,0,*5F
1486029978.23,37390,8.0,73130.3,-2.31,-37.21,-37.93,0,*57
1486029979.5,37391,8.0,73124.8,-2.31,-37.21,-37.81,0,*55
1486029980.79,37392,8.0,73126.8,-2.33,-37.09,-37.63,0,*52
1486029982.09,37393,8.0,73124.5,-2.33,-37.21,-37.63,0,*59
1486029983.39,37394,8.0,73130.8,-2.33,-37.21,-37.81,0,*52
1486029984.65,37395,8.94,73132.0,-2.31,-37.39,-37.81,0,*58
1486029985.94,37396,8.0,73138.5,-2.33,-37.21,-37.69,0,*56
1486029987.15,37397,8.0,73132.0,-2.35,-37.45,-37.87,0,*53
1486029988.39,37398,8.0,73128.8,-2.35,-37.39,-38.05,0,*52
1486029989.65,37399,8.0,73126.0,-2.35,-37.63,-38.23,0,*58
1486029990.9,37400,7.94,73122.3,-2.35,-37.81,-38.43,0,*55
1486029992.13,37401,7.94,73130.0,-2.35,-37.63,-38.17,0,*59
1486029993.33,37402,8.0,73126.8,-2.35,-37.45,-38.05,0,*5D
1486029994.62,37403,8.0,73126.3,-2.37,-37.51,-37.93,0,*5B
1486029995.91,37404,8.0,73128.3,-2.37,-37.09,-37.51,0,*5F
1486029997.17,37405,8.0,73132.5,-2.37,-36.79,-37.33,0,*5C
1486029998.43,37406,8.0,73128.3,-2.37,-36.79,-37.33,0,*5F
1486029999.7,37407,7.94,73126.0,-2.37,-36.97,-37.63,0,*5B
1486030000.96,37408,8.0,73120.0,-2.37,-37.33,-37.93,0,*54
1486030002.23,37409,8.0,73124.0,-2.37,-37.87,-38.49,0,*52
1486030003.51,37410,8.0,73122.5,-2.37,-37.63,-38.11,0,*5D
1486030004.72,37411,8.0,73124.0,-2.39,-37.75,-38.17,0,*53
1486030005.94,37412,8.0,73122.3,-2.39,-37.75,-38.35,0,*50
1486030007.2,37413,7.94,73124.3,-2.39,-37.69,-38.11,0,*5A
1486030008.47,37414,8.0,73122.5,-2.39,-37.39,-37.81,0,*5E
1486030009.76,37415,7.94,73126.0,-2.41,-37.39,-37.99,0,*59
1486030011.01,37416,7.94,73124.5,-2.41,-36.43,-36.79,0,*59
1486030012.26,37417,8.0,73128.8,-2.41,-36.07,-36.55,0,*56
1486030013.5,37418,8.0,73130.8,-2.39,-35.89,-36.25,0,*54
1486030014.76,37419,7.94,73126.0,-2.39,-35.83,-36.37,0,*5C
1486030016.0,37420,8.0,73128.3,-2.39,-36.19,-36.61,0,*55
1486030017.24,37421,8.0,73134.8,-2.35,-35.53,-35.89,0,*50
1486030018.45,37422,8.0,73130.3,-2.35,-35.77,-36.07,0,*50
1486030019.66,37423,7.94,73132.5,-2.35,-35.77,-36.31,0,*54
1486030020.91,37424,7.94,73130.0,-2.35,-36.25,-36.55,0,*55
1486030022.17,37425,8.0,73130.3,-2.35,-35.95,-36.49,0,*51
1486030023.41,37426,8.0,73124.8,-2.33,-36.07,-36.43,0,*56
1486030024.67,37427,8.0,73124.3,-2.33,-35.95,-36.31,0,*5A
1486030025.94,37428,8.0,73126.5,-2.33,-36.13,-36.55,0,*5A
1486030027.2,37429,7.94,73120.3,-2.33,-35.53,-35.89,0,*5E
1486030028.44,37430,8.0,73114.5,-2.31,-35.53,-35.89,0,*54
1486030029.68,37431,7.94,73120.0,-2.31,-36.61,-37.15,0,*50
1486030030.92,37432,7.94,73124.0,-2.31,-36.49,-36.85,0,*51
1486030032.16,37433,8.0,73126.0,-2.31,-36.97,-37.51,0,*5B
1486030033.4,37434,8.0,73132.3,-2.33,-36.43,-36.67,0,*53
1486030034.65,37435,8.0,73122.0,-2.33,-36.07,-36.55,0,*53
1486030035.89,37436,8.0,73132.5,-2.31,-36.61,-37.03,0,*50
1486030037.15,37437,8.0,73134.5,-2.33,-36.67,-37.09,0,*5F
1486030038.39,37438,7.94,73132.8,-2.33,-36.73,-37.03,0,*5F
1486030039.63,37439,8.0,73136.5,-2.31,-35.89,-36.37,0,*5C
1486030040.84,37440,8.0,73138.0,-2.31,-36.19,-36.43,0,*5B
1486030042.08,37441,8.0,73136.3,-2.31,-36.19,-36.49,0,*50
1486030043.31,37442,8.0,73128.0,-2.31,-36.61,-36.85,0,*5C
1486030044.55,37443,8.0,73128.0,-2.31,-36.61,-37.15,0,*55
1486030045.79,37444,8.0,73128.5,-2.31,-36.01,-36.37,0,*55
1486030047.0,37445,8.0,73130.5,-2.31,-35.71,-36.19,0,*5C
1486030048.26,37446,8.0,73130.0,-2.29,-35.29,-35.53,0,*56
1486030049.49,37447,8.0,73134.0,-2.29,-35.13,-35.47,0,*5B
1486030050.75,37448,8.0,73128.5,-2.27,-35.41,-35.65,0,*5D
1486030051.96,37449,8.0,73124.5,-2.27,-35.47,-35.77,0,*59
1486030053.2,37450,8.0,73128.5,-2.27,-35.83,-36.31,0,*58
1486030054.44,37451,8.0,73120.3,-2.27,-36.37,-36.97,0,*59
1486030055.69,37452,8.0,73112.3,-2.29,-37.57,-38.11,0,*53
1486030056.93,37453,7.94,73118.5,-2.27,-37.15,-37.51,0,*51
1486030058.16,37454,8.0,73128.5,-2.29,-36.85,-37.33,0,*54
1486030059.42,37455,8.0,73132.0,-2.29,-36.49,-36.85,0,*59
1486030060.68,37456,8.0,73120.5,-2.29,-37.15,-37.51,0,*5A
1486030061.97,37457,8.0,73122.3,-2.29,-37.51,-37.81,0,*56
1486030063.18,37458,7.94,73114.3,-2.31,-37.03,-37.33,0,*5E
1486030064.46,37459,8.0,73116.8,-2.33,-37.39,-37.69,0,*5B
1486030065.73,37460,8.0,73114.8,-2.33,-37.99,-38.61,0,*5C
1486030066.96,37461,8.0,73116.5,-2.33,-38.43,-38.97,0,*5C
1486030068.19,37462,8.0,73120.8,-2.35,-38.35,-38.91,0,*5E
1486030069.45,37463,8.0,73126.3,-2.37,-38.11,-38.85,0,*5E
1486030070.74,37464,7.94,73122.3,-2.37,-37.93,-38.49,0,*5C
1486030071.98,37465,8.0,73120.5,-2.39,-37.93,-38.35,0,*58
1486030073.27,37466,7.94,73118.5,-2.41,-37.39,-37.99,0,*5D
1486030074.55,37467,7.94,73110.0,-2.39,-37.81,-38.29,0,*54
1486030075.78,37468,8.0,73114.3,-2.41,-37.75,-38.17,0,*52
1486030077.04,37469,8.0,73114.8,-2.43,-37.63,-38.23,0,*51
1486030078.28,37470,8.0,73114.5,-2.45,-37.87,-38.23,0,*55
1486030079.53,37471,8.0,73114.0,-2.45,-37.81,-38.43,0,*54
1486030080.76,37472,7.94,73118.3,-2.45,-37.45,-37.81,0,*5E
1486030082.02,37473,8.0,73120.5,-2.43,-36.91,-37.39,0,*52
1486030083.26,37474,8.0,73116.8,-2.45,-36.73,-37.09,0,*5C
1486030084.52,37475,7.94,73114.8,-2.45,-36.91,-37.39,0,*52
1486030085.73,37476,7.94,73122.3,-2.45,-36.67,-37.03,0,*51
1486030086.94,37477,8.0,73124.5,-2.45,-36.67,-37.03,0,*50
1486030088.14,37478,8.0,73124.3,-2.45,-36.67,-37.03,0,*5F
1486030089.38,37479,8.0,73120.8,-2.43,-36.91,-37.57,0,*50
1486030090.62,37480,8.0,73120.5,-2.45,-36.67,-37.09,0,*52
1486030091.82,37481,8.0,73112.5,-2.45,-36.73,-37.27,0,*5A
1486030093.08,37482,8.0,73114.5,-2.45,-36.49,-36.91,0,*5C
1486030094.29,37483,8.0,73106.0,-2.45,-37.03,-37.57,0,*59
1486030095.49,37484,8.0,73118.3,-2.45,-37.03,-37.45,0,*5D
1486030096.75,37485,8.0,73112.8,-2.45,-37.39,-37.63,0,*51
1486030097.96,37486,8.0,73118.3,-2.45,-36.67,-37.03,0,*5E
1486030099.2,37487,8.0,73110.5,-2.45,-36.85,-37.21,0,*53
1486030100.4,37488,8.0,73112.5,-2.45,-37.03,-37.57,0,*52
1486030101.61,37489,8.0,73106.3,-2.49,-37.45,-37.87,0,*50
1486030102.87,37490,8.0,73112.0,-2.49,-37.81,-38.23,0,*51
1486030104.13,37491,8.0,73126.8,-2.51,-37.45,-37.81,0,*56
1486030105.36,37492,8.0,73120.5,-2.51,-36.97,-37.45,0,*53
1486030106.56,37493,8.0,73112.3,-2.49,-36.67,-36.97,0,*5A
1486030107.81,37494,8.0,73118.8,-2.49,-36.49,-36.91,0,*57
1486030109.1,37495,8.0,73116.8,-2.51,-37.09,-37.63,0,*56
1486030110.35,37496,8.0,73124.0,-2.51,-37.27,-37.69,0,*53